Theta_e
321 323 320 322 323 320 320 319 313 311 312 317 315 318 318 321 327 325 325 329 328 330 330 330 330 329 327 327 328 328 328 328 328 329 330 331 332 334
323 328 326 327 323 323 319 318 317 313 311 314 315 315 316 318 322 325 322 327 326 327 329 330 329 329 329 327 327 327 328 328 327 327 328 330 332 332
325 326 324 326 325 321 323 321 318 317 310 315 317 320 319 319 322 325 325 324 324 326 329 330 329 328 328 327 327 326 326 326 327 327 327 328 330 331
321 321 322 324 323 325 324 323 321 320 317 316 316 316 318 319 321 321 320 321 323 324 327 330 328 326 326 325 326 325 323 323 324 325 325 325 328 329
321 322 323 325 323 322 323 323 323 320 319 315 315 315 315 317 318 319 320 322 321 324 327 326 326 326 325 325 324 322 320 319 319 319 320 321 322 324
321 322 323 325 323 322 322 324 323 320 318 316 315 314 314 317 315 315 316 317 317 320 321 323 325 325 325 324 324 324 321 318 316 316 317 316 316 319
319 321 323 325 324 326 325 326 323 321 318 317 315 314 314 315 315 317 315 316 318 319 318 320 319 320 321 323 324 325 321 321 318 317 316 315 315 316
318 320 320 321 322 324 326 329 327 324 321 318 317 316 319 317 316 316 315 315 315 318 317 316 318 318 321 323 323 323 321 321 320 318 317 316 315 315
319 319 319 320 324 324 323 324 325 326 327 324 321 321 319 321 319 317 316 315 316 319 316 315 319 317 322 322 321 321 320 319 319 318 317 316 315 313
322 322 321 321 321 321 322 323 324 324 324 324 326 326 324 326 321 322 321 317 317 317 317 312 319 317 321 322 321 320 319 318 317 317 316 314 312 310
323 323 321 321 320 320 322 322 323 323 322 321 322 322 322 321 322 319 317 314 314 317 315 314 317 317 318 320 323 319 317 316 315 315 315 314 311 310
322 322 320 322 318 317 322 322 320 321 322 322 322 321 322 323 321 323 321 315 316 313 319 314 316 316 315 320 321 323 323 315 312 312 312 311 309 321
320 321 322 317 315 313 314 322 320 323 321 321 320 320 321 321 320 320 321 319 316 314 319 317 316 315 315 314 318 320 322 322 323 321 309 308 307 312
321 323 323 314 311 311 312 314 312 315 319 319 318 317 318 318 320 321 321 319 320 320 322 321 314 314 315 312 312 318 319 321 321 321 322 315 309 309
321 320 316 312 309 311 311 312 312 318 317 316 316 314 315 319 320 319 320 319 317 317 317 318 315 316 315 313 313 315 315 318 321 319 320 320 320 322
319 320 319 317 315 318 318 319 319 318 316 316 317 318 317 316 317 319 317 318 316 316 320 321 319 317 313 313 313 314 317 315 319 319 320 320 320 320
315 317 316 317 315 315 314 315 317 316 316 317 317 316 315 318 318 319 317 315 311 310 311 316 320 322 319 317 312 313 314 315 318 315 316 315 318 318
311 313 313 312 311 312 313 314 316 317 320 320 319 318 316 317 315 316 315 312 310 310 309 312 314 313 314 315 318 314 315 314 313 314 314 311 312 317
309 310 310 312 313 314 315 316 317 320 320 318 318 316 314 314 313 313 311 310 308 307 308 311 311 309 304 302 310 313 312 309 310 310 312 312 309 310
309 310 311 314 315 316 318 318 318 318 317 317 316 316 315 313 313 313 309 307 306 307 307 309 309 309 307 305 306 309 308 311 309 308 308 310 311 311
315 314 315 316 318 319 318 317 316 313 312 313 314 314 315 314 313 308 309 301 302 304 302 304 307 308 309 310 306 305 308 307 308 308 309 307 306 308
317 317 318 319 318 317 316 314 313 312 312 314 315 315 312 306 303 302 300 300 300 299 299 301 303 304 304 304 303 305 305 308 308 308 308 307 308 305
320 320 320 318 316 315 314 314 313 313 313 313 314 305 303 300 299 299 300 299 299 299 299 298 300 303 303 303 302 304 305 305 305 305 306 308 308 308
Wind_Speed
4 5 4 3 4 4 3 2 4 4 3 1 2 2 2 2 3 1 3 7 6 7 7 8 9 9 8 8 10 11 13 14 14 14 13 12 12 13
4 5 4 3 4 3 3 3 3 3 1 2 2 3 3 2 4 2 3 7 7 5 5 7 7 8 10 10 10 11 12 12 14 14 13 12 11 12
5 4 5 4 4 3 3 3 2 2 2 1 2 3 3 3 3 2 3 3 4 9 8 9 9 9 10 10 10 10 11 12 12 13 12 12 12 12
4 5 5 3 4 4 3 3 2 1 2 2 1 1 3 2 3 4 3 3 3 8 10 10 10 10 11 10 10 11 9 8 11 14 13 13 13 12
4 3 3 2 2 2 2 1 2 2 1 2 2 1 2 1 2 3 3 4 5 10 10 9 10 10 11 11 9 9 8 7 9 9 11 12 11 9
2 2 2 2 2 1 1 2 2 2 2 2 3 3 3 2 3 3 3 3 5 5 6 7 10 12 13 12 11 9 7 8 7 7 7 8 8 8
1 2 3 5 6 5 3 3 3 2 3 4 3 2 3 3 4 1 4 5 4 3 3 4 5 6 7 8 9 11 8 8 8 9 7 7 7 6
3 4 3 8 6 8 8 8 6 5 5 2 2 4 6 4 3 3 3 3 4 3 2 7 4 8 7 6 10 10 9 8 8 8 7 7 7 8
5 5 7 6 7 5 5 7 8 10 12 5 7 7 5 5 2 3 4 4 6 5 3 8 4 9 7 7 11 10 11 10 10 8 8 7 6 7
7 8 7 8 7 7 6 7 8 8 9 7 10 10 9 8 8 5 6 6 6 8 6 5 5 9 8 8 11 11 11 11 10 9 8 8 7 6
8 8 8 9 11 9 7 8 9 10 7 11 13 13 14 12 9 3 7 5 7 7 5 4 6 6 6 8 7 10 11 11 10 9 9 11 9 6
7 9 13 12 12 9 9 8 9 12 8 8 7 9 13 11 11 11 8 8 8 6 1 6 3 3 5 4 6 6 6 10 10 10 10 10 9 5
7 6 7 14 16 15 13 9 10 7 8 8 8 8 8 8 7 7 9 9 8 9 5 5 5 5 4 6 6 6 7 8 7 7 11 12 11 8
7 5 6 10 13 14 10 15 16 11 8 8 7 8 7 8 7 6 6 8 9 10 10 7 6 9 8 10 11 10 8 8 8 9 8 8 10 11
7 10 13 10 9 10 15 15 11 7 6 6 7 6 5 6 8 7 7 6 7 8 8 9 8 10 10 11 11 11 11 10 9 10 9 9 9 6
8 8 8 8 8 9 7 6 5 5 5 8 7 7 3 4 6 4 4 4 6 6 6 8 8 8 8 8 9 11 11 9 9 9 9 9 9 8
6 4 5 4 5 5 5 6 5 5 6 6 7 6 4 4 6 5 5 5 5 7 8 9 8 9 7 9 8 8 8 9 7 9 7 11 11 9
3 5 6 4 5 6 6 6 6 6 5 5 5 5 4 5 6 5 3 3 6 4 6 7 8 7 5 6 13 9 8 7 5 5 6 6 8 9
4 4 5 5 5 5 5 4 6 4 5 5 5 4 4 4 5 4 4 4 5 5 6 7 7 5 7 8 7 2 5 7 5 6 6 7 6 8
2 4 5 4 5 4 4 4 4 5 5 6 6 6 6 5 5 6 3 4 5 5 7 5 5 6 7 8 8 9 9 8 8 9 9 8 8 15
4 4 5 4 4 3 3 4 4 5 6 6 5 5 5 5 3 2 3 3 4 5 7 7 7 9 7 6 6 8 8 8 8 8 9 8 8 6
4 4 4 3 3 3 4 4 3 4 4 5 6 4 2 1 2 1 1 3 5 5 7 8 9 7 6 7 9 10 8 9 6 11 15 15 6 5
4 4 4 4 4 4 4 3 3 5 5 5 4 2 3 3 4 3 0 2 4 6 6 8 7 6 7 7 8 8 10 10 8 9 9 9 16 21
Wind_Direction
85 80 78 53 47 48 70 142 154 164 203 144 340 350 336 356 300 5 10 328 340 355 352 339 338 341 336 329 325 319 318 319 317 310 307 308 309 312
81 84 90 93 87 84 91 70 77 112 111 248 257 289 304 300 272 297 305 297 292 314 326 311 318 324 333 335 331 323 320 319 318 314 306 304 299 300
80 91 79 79 97 93 98 105 112 84 159 227 238 262 276 282 301 289 270 264 290 306 310 303 312 320 314 319 324 323 324 323 322 318 309 298 291 291
95 92 81 80 73 86 113 114 145 151 149 220 256 272 256 294 283 285 289 303 296 295 284 282 291 301 307 307 312 313 316 313 318 319 320 311 299 295
115 113 97 83 94 104 109 135 154 162 162 202 281 269 280 299 319 284 299 315 290 296 289 273 272 282 284 290 295 296 300 309 306 313 321 325 316 320
140 145 173 197 197 176 226 233 185 184 205 233 260 268 257 282 277 281 294 239 300 300 281 279 290 294 297 293 289 285 283 294 302 301 309 318 328 333
262 255 252 245 239 226 239 246 205 209 209 218 232 244 253 253 239 254 277 300 287 258 290 288 309 306 290 272 272 272 271 286 296 297 304 304 314 320
263 254 258 264 269 264 259 245 222 226 241 225 248 259 270 262 236 251 264 287 302 187 238 290 272 291 285 274 263 266 268 262 261 270 285 293 304 307
253 270 265 256 249 255 261 271 264 250 238 231 253 248 255 242 240 277 245 253 264 270 233 286 288 284 281 285 261 267 271 267 260 261 265 273 278 291
249 245 243 262 245 238 263 278 276 268 251 237 233 253 240 252 218 252 278 273 273 264 214 252 287 277 292 278 264 263 260 253 254 262 268 268 269 276
255 252 246 255 254 220 236 260 276 277 256 233 241 251 261 257 241 256 265 270 282 284 190 249 272 282 286 278 264 245 251 260 258 262 274 279 265 265
255 254 246 241 247 211 222 232 252 258 266 273 249 243 245 253 238 222 253 248 258 281 246 210 256 246 276 245 261 245 243 244 249 253 262 267 276 283
254 257 238 224 236 241 218 227 232 260 259 263 281 284 280 270 267 224 220 229 244 241 242 214 265 263 247 290 284 272 259 252 240 250 238 246 246 220
258 270 267 216 227 233 223 228 233 239 252 259 262 271 273 280 280 276 246 232 239 245 271 239 263 274 273 276 278 294 274 271 263 258 246 244 243 240
243 248 256 259 237 244 236 239 235 236 242 246 259 260 261 278 287 285 278 263 246 252 257 260 251 267 265 268 276 280 286 282 269 261 257 251 244 234
258 265 262 265 261 272 298 278 261 250 254 267 264 269 280 283 271 267 286 311 309 299 294 263 258 251 259 256 262 268 274 272 285 273 268 269 258 247
268 263 273 267 285 286 279 276 287 289 265 260 267 266 255 267 281 298 293 303 287 304 306 309 301 276 253 254 265 259 263 272 268 277 277 276 272 262
245 259 267 260 272 285 287 292 283 271 270 276 263 250 261 271 279 276 243 260 288 294 299 304 314 317 303 273 246 276 289 300 307 292 282 267 283 291
231 259 266 269 276 274 270 260 276 290 292 275 262 268 249 245 243 246 261 277 295 297 288 293 305 304 308 301 305 273 328 301 292 287 281 269 269 273
239 243 250 257 267 260 263 275 296 296 290 280 270 264 254 239 241 232 211 255 277 286 289 290 295 303 297 297 299 294 263 282 302 302 299 293 274 274
221 238 247 244 240 260 282 289 282 284 287 280 260 256 262 237 233 222 251 256 275 289 294 292 289 291 284 277 262 284 294 240 246 282 296 290 286 282
225 229 225 234 251 260 258 244 262 294 295 284 278 255 189 155 175 245 53 335 315 305 289 290 297 291 276 264 284 292 287 301 287 246 253 250 267 273
212 209 209 221 232 238 252 281 276 274 277 280 279 170 182 190 187 179 301 293 296 302 298 299 300 295 274 274 277 278 283 293 305 312 307 262 237 246